When you browse on this site, cookies collect data to enhance your experience and personalize the content and advertising you see.
Visit our Privacy Policy to learn more. By continuing to use the site, you agree to this use of cookies and data.
  • In Germany
  • List of Countries
  • For 7 days
  • Water Temperature
  • Satellite Maps
  • Weather Map
  • Weather Widgets
  • user-avatar
    Login

    Hourly Weather Chitkan

    Today, 20 November, Tuesday

    Time Temperature Precipitation Wind Pressure Humidity
    00:00 -15°C° 0.1 mm 2 mps 719 mmHg 90%
    01:00 -16°C° 0 mm 3 mps 718 mmHg 90%
    02:00 -15°C° 0.1 mm 3 mps 718 mmHg 90%
    03:00 -15°C° 0.1 mm 3 mps 718 mmHg 89%
    04:00 -16°C° 0.1 mm 4 mps 718 mmHg 89%
    05:00 -16°C° 0.1 mm 4 mps 718 mmHg 89%
    06:00 -16°C° 0.1 mm 4 mps 717 mmHg 89%
    07:00 -16°C° 0 mm 6 mps 717 mmHg 89%
    08:00 -15°C° 0.2 mm 6 mps 716 mmHg 87%
    09:00 -15°C° 0.2 mm 6 mps 716 mmHg 85%
    10:00 -15°C° 0.2 mm 6 mps 716 mmHg 82%
    11:00 -15°C° 0.1 mm 6 mps 716 mmHg 81%
    12:00 -15°C° 0.1 mm 6 mps 716 mmHg 79%
    13:00 -15°C° 0.1 mm 6 mps 716 mmHg 77%
    14:00 -16°C° 0.1 mm 6 mps 717 mmHg 79%
    15:00 -17°C° 0.1 mm 5 mps 717 mmHg 81%
    16:00 -18°C° 0.1 mm 5 mps 717 mmHg 82%
    17:00 -19°C° 0 mm 5 mps 718 mmHg 84%
    18:00 -19°C° 0 mm 4 mps 718 mmHg 85%
    19:00 -19°C° 0 mm 4 mps 718 mmHg 87%
    20:00 -19°C° 0 mm 3 mps 718 mmHg 88%
    21:00 -19°C° 0 mm 3 mps 719 mmHg 89%
    22:00 -21°C° 0 mm 3 mps 719 mmHg 90%
    23:00 -19°C° 0 mm 2 mps 719 mmHg 90%

    Tomorrow, 21 November, Wednesday

    Time Temperature Precipitation Wind Pressure Humidity
    00:00 -19°C° 0 mm 2 mps 719 mmHg 90%
    01:00 -19°C° 0 mm 2 mps 719 mmHg 90%
    02:00 -19°C° 0 mm 2 mps 719 mmHg 91%
    03:00 -19°C° 0 mm 2 mps 719 mmHg 91%
    04:00 -19°C° 0 mm 2 mps 719 mmHg 91%
    05:00 -19°C° 0 mm 2 mps 720 mmHg 92%
    06:00 -18°C° 0 mm 1 mps 720 mmHg 92%
    07:00 -18°C° 0 mm 1 mps 720 mmHg 92%
    08:00 -16°C° 0 mm 1 mps 720 mmHg 88%
    09:00 -15°C° 0 mm 1 mps 721 mmHg 83%
    10:00 -15°C° 0 mm 2 mps 721 mmHg 79%
    11:00 -15°C° 0 mm 2 mps 721 mmHg 77%
    12:00 -14°C° 0 mm 2 mps 721 mmHg 75%
    13:00 -13°C° 0 mm 2 mps 721 mmHg 74%
    14:00 -14°C° 0 mm 2 mps 721 mmHg 79%
    15:00 -14°C° 0 mm 1 mps 721 mmHg 83%
    16:00 -15°C° 0 mm 1 mps 721 mmHg 88%
    17:00 -15°C° 0 mm 1 mps 721 mmHg 89%
    18:00 -15°C° 0 mm 1 mps 721 mmHg 89%
    19:00 -16°C° 0 mm 1 mps 721 mmHg 90%
    20:00 -16°C° 0 mm 1 mps 721 mmHg 90%
    21:00 -15°C° 0 mm 1 mps 721 mmHg 89%
    22:00 -15°C° 0 mm 1 mps 721 mmHg 89%
    23:00 -15°C° 0 mm 1 mps 720 mmHg 89%

    Day after tomorrow, 22 November, Thursday

    Time Temperature Precipitation Wind Pressure Humidity
    00:00 -15°C° 0 mm 1 mps 720 mmHg 89%
    01:00 -14°C° 0 mm 1 mps 720 mmHg 89%
    02:00 -14°C° 0 mm 1 mps 720 mmHg 89%
    03:00 -14°C° 0 mm 1 mps 719 mmHg 89%
    04:00 -16°C° 0 mm 2 mps 719 mmHg 89%
    05:00 -16°C° 0 mm 2 mps 719 mmHg 89%
    06:00 -15°C° 0 mm 2 mps 719 mmHg 89%
    07:00 -15°C° 0 mm 2 mps 719 mmHg 89%
    08:00 -13°C° 0 mm 2 mps 718 mmHg 87%
    09:00 -12°C° 0 mm 2 mps 718 mmHg 86%
    10:00 -9°C° 0 mm 2 mps 718 mmHg 84%
    11:00 -8°C° 0.1 mm 2 mps 718 mmHg 83%
    12:00 -7°C° 0.1 mm 2 mps 717 mmHg 83%
    13:00 -7°C° 0.1 mm 3 mps 717 mmHg 82%
    14:00 -7°C° 0 mm 2 mps 717 mmHg 85%
    15:00 -7°C° 0 mm 2 mps 717 mmHg 88%
    16:00 -8°C° 0 mm 2 mps 717 mmHg 91%
    17:00 -8°C° 0 mm 2 mps 717 mmHg 91%
    18:00 -8°C° 0 mm 2 mps 717 mmHg 92%
    19:00 -9°C° 0 mm 2 mps 717 mmHg 92%
    20:00 -9°C° 0 mm 2 mps 717 mmHg 92%
    21:00 -9°C° 0 mm 2 mps 717 mmHg 92%
    22:00 -8°C° 0 mm 1 mps 717 mmHg 92%
    23:00 -8°C° 0 mm 1 mps 716 mmHg 92%

    23 November, Friday

    Time Temperature Precipitation Wind Pressure Humidity
    00:00 -8°C° 0 mm 1 mps 716 mmHg 92%
    01:00 -8°C° 0 mm 1 mps 716 mmHg 92%
    02:00 -8°C° 0 mm 1 mps 716 mmHg 92%
    03:00 -8°C° 0 mm 1 mps 716 mmHg 92%
    04:00 -8°C° 0 mm 1 mps 716 mmHg 92%
    05:00 -8°C° 0 mm 1 mps 716 mmHg 92%
    06:00 -8°C° 0 mm 1 mps 716 mmHg 92%
    07:00 -8°C° 0 mm 1 mps 716 mmHg 92%
    08:00 -7°C° 0 mm 1 mps 716 mmHg 90%
    09:00 -6°C° 0 mm 1 mps 716 mmHg 88%
    10:00 -3°C° 0 mm 1 mps 716 mmHg 85%
    11:00 -3°C° 0 mm 1 mps 716 mmHg 84%
    12:00 -2°C° 0 mm 1 mps 716 mmHg 82%
    13:00 -4°C° 0 mm 2 mps 716 mmHg 81%
    14:00 -3°C° 0 mm 1 mps 716 mmHg 84%
    15:00 -4°C° 0 mm 1 mps 716 mmHg 87%
    16:00 -7°C° 0 mm 1 mps 716 mmHg 91%
    17:00 -7°C° 0 mm 1 mps 716 mmHg 91%
    18:00 -8°C° 0 mm 1 mps 716 mmHg 91%
    19:00 -8°C° 0 mm 1 mps 716 mmHg 91%
    20:00 -8°C° 0 mm 1 mps 716 mmHg 90%
    21:00 -9°C° 0 mm 1 mps 716 mmHg 90%
    22:00 -9°C° 0 mm 1 mps 716 mmHg 89%
    23:00 -9°C° 0 mm 1 mps 716 mmHg 89%

    24 November, Saturday

    Time Temperature Precipitation Wind Pressure Humidity
    00:00 -9°C° 0 mm 1 mps 716 mmHg 89%
    01:00 -9°C° 0 mm 1 mps 716 mmHg 88%
    02:00 -9°C° 0 mm 1 mps 716 mmHg 88%
    03:00 -9°C° 0 mm 1 mps 716 mmHg 87%
    04:00 -9°C° 0 mm 1 mps 716 mmHg 87%
    05:00 -9°C° 0 mm 1 mps 716 mmHg 86%
    06:00 -9°C° 0 mm 1 mps 716 mmHg 85%
    07:00 -9°C° 0 mm 1 mps 716 mmHg 84%
    08:00 -8°C° 0 mm 1 mps 716 mmHg 81%
    09:00 -6°C° 0 mm 1 mps 716 mmHg 78%
    10:00 -3°C° 0 mm 1 mps 716 mmHg 74%
    11:00 -2°C° 0 mm 1 mps 716 mmHg 74%
    12:00 -2°C° 0 mm 1 mps 716 mmHg 73%
    13:00 -1°C° 0 mm 1 mps 715 mmHg 73%
    14:00 -2°C° 0 mm 1 mps 715 mmHg 76%
    15:00 -3°C° 0 mm 1 mps 715 mmHg 79%
    16:00 -4°C° 0 mm 1 mps 715 mmHg 82%
    17:00 -6°C° 0 mm 1 mps 714 mmHg 82%
    18:00 -6°C° 0 mm 1 mps 714 mmHg 82%
    19:00 -7°C° 0 mm 2 mps 714 mmHg 82%
    20:00 -7°C° 0 mm 2 mps 713 mmHg 82%
    21:00 -8°C° 0 mm 2 mps 713 mmHg 83%
    22:00 -8°C° 0 mm 2 mps 712 mmHg 84%
    23:00 -8°C° 0 mm 2 mps 712 mmHg 83%

    25 November, Sunday

    Time Temperature Precipitation Wind Pressure Humidity
    00:00 -9°C° 0 mm 2 mps 711 mmHg 83%
    01:00 -9°C° 0 mm 2 mps 710 mmHg 83%
    02:00 -9°C° 0 mm 2 mps 710 mmHg 82%
    03:00 -9°C° 0 mm 2 mps 709 mmHg 82%
    04:00 -9°C° 0 mm 2 mps 708 mmHg 81%
    05:00 -9°C° 0 mm 2 mps 707 mmHg 81%
    06:00 -9°C° 0 mm 2 mps 706 mmHg 80%
    07:00 -8°C° 0 mm 2 mps 705 mmHg 79%
    08:00 -7°C° 0 mm 2 mps 705 mmHg 77%
    09:00 -6°C° 0 mm 2 mps 704 mmHg 76%
    10:00 -4°C° 0 mm 2 mps 703 mmHg 74%
    11:00 -4°C° 0.1 mm 2 mps 703 mmHg 75%
    12:00 -3°C° 0.1 mm 2 mps 702 mmHg 76%
    13:00 -3°C° 0.1 mm 2 mps 701 mmHg 78%
    14:00 -3°C° 0.3 mm 2 mps 702 mmHg 82%
    15:00 -5°C° 0.3 mm 3 mps 702 mmHg 87%
    16:00 -5°C° 0.3 mm 3 mps 703 mmHg 91%
    17:00 -5°C° 0.4 mm 4 mps 703 mmHg 90%
    18:00 -8°C° 0.4 mm 6 mps 704 mmHg 89%
    19:00 -8°C° 0.4 mm 7 mps 705 mmHg 88%
    20:00 -9°C° 0.1 mm 7 mps 705 mmHg 82%
    21:00 -11°C° 0.1 mm 7 mps 706 mmHg 76%
    22:00 -12°C° 0.1 mm 7 mps 706 mmHg 70%
    23:00 -13°C° 0 mm 7 mps 707 mmHg 72%
    Show more